When you browse on this site, cookies collect data to enhance your experience and personalize the content and advertising you see.
Visit our Privacy Policy to learn more. By continuing to use the site, you agree to this use of cookies and data.
  • In Portugal
  • List of Countries
  • For 7 days
  • Water Temperature
  • Satellite Maps
  • Weather Map
  • Weather Widgets
  • user-avatar
    Login

    Hourly Weather Orehovo

    Today, 20 July, Saturday

    Time Temperature Precipitation Wind Pressure Humidity
    00:00 +21°C° 0 mm 2 mps 747 mmHg 94%
    01:00 +20°C° 0 mm 2 mps 747 mmHg 94%
    02:00 +20°C° 0 mm 2 mps 747 mmHg 95%
    03:00 +20°C° 0 mm 2 mps 747 mmHg 96%
    04:00 +20°C° 0 mm 2 mps 748 mmHg 95%
    05:00 +20°C° 0 mm 2 mps 748 mmHg 94%
    06:00 +21°C° 0 mm 2 mps 748 mmHg 94%
    07:00 +22°C° 0 mm 3 mps 748 mmHg 87%
    08:00 +25°C° 0 mm 3 mps 748 mmHg 80%
    09:00 +27°C° 0 mm 4 mps 748 mmHg 73%
    10:00 +28°C° 0 mm 4 mps 748 mmHg 70%
    11:00 +29°C° 0 mm 5 mps 748 mmHg 66%
    12:00 +30°C° 0 mm 6 mps 748 mmHg 63%
    13:00 +30°C° 0 mm 6 mps 748 mmHg 61%
    14:00 +32°C° 0 mm 6 mps 747 mmHg 60%
    15:00 +32°C° 0 mm 6 mps 747 mmHg 58%
    16:00 +30°C° 0 mm 6 mps 747 mmHg 65%
    17:00 +29°C° 0 mm 6 mps 747 mmHg 71%
    18:00 +28°C° 0 mm 6 mps 747 mmHg 78%
    19:00 +26°C° 0 mm 5 mps 747 mmHg 82%
    20:00 +25°C° 0 mm 5 mps 748 mmHg 87%
    21:00 +23°C° 0 mm 4 mps 748 mmHg 91%
    22:00 +23°C° 0 mm 4 mps 748 mmHg 92%
    23:00 +24°C° 0 mm 3 mps 748 mmHg 92%

    Tomorrow, 21 July, Sunday

    Time Temperature Precipitation Wind Pressure Humidity
    00:00 +24°C° 0 mm 3 mps 748 mmHg 93%
    01:00 +24°C° 0 mm 3 mps 748 mmHg 92%
    02:00 +24°C° 0 mm 3 mps 748 mmHg 92%
    03:00 +24°C° 0 mm 3 mps 748 mmHg 91%
    04:00 +24°C° 0 mm 3 mps 748 mmHg 91%
    05:00 +24°C° 0 mm 3 mps 748 mmHg 91%
    06:00 +24°C° 0 mm 3 mps 748 mmHg 91%
    07:00 +24°C° 0 mm 3 mps 748 mmHg 91%
    08:00 +24°C° 0 mm 2 mps 748 mmHg 90%
    09:00 +24°C° 0 mm 2 mps 748 mmHg 90%
    10:00 +26°C° 0 mm 3 mps 748 mmHg 85%
    11:00 +27°C° 0 mm 3 mps 747 mmHg 79%
    12:00 +29°C° 0 mm 4 mps 747 mmHg 73%
    13:00 +28°C° 0.2 mm 4 mps 747 mmHg 76%
    14:00 +28°C° 0.2 mm 4 mps 747 mmHg 80%
    15:00 +27°C° 0.2 mm 3 mps 746 mmHg 83%
    16:00 +27°C° 0 mm 3 mps 746 mmHg 82%
    17:00 +26°C° 0 mm 3 mps 745 mmHg 81%
    18:00 +26°C° 0 mm 2 mps 745 mmHg 80%
    19:00 +25°C° 0.5 mm 2 mps 745 mmHg 82%
    20:00 +25°C° 0.5 mm 3 mps 744 mmHg 84%
    21:00 +24°C° 0.5 mm 3 mps 744 mmHg 85%
    22:00 +24°C° 0.2 mm 3 mps 744 mmHg 85%
    23:00 +24°C° 0.2 mm 3 mps 743 mmHg 85%

    Day after tomorrow, 22 July, Monday

    Time Temperature Precipitation Wind Pressure Humidity
    00:00 +24°C° 0.2 mm 3 mps 742 mmHg 85%
    01:00 +23°C° 0.7 mm 4 mps 742 mmHg 88%
    02:00 +22°C° 0.7 mm 4 mps 741 mmHg 91%
    03:00 +22°C° 0.7 mm 4 mps 740 mmHg 94%
    04:00 +22°C° 2 mm 4 mps 740 mmHg 94%
    05:00 +22°C° 2 mm 3 mps 739 mmHg 95%
    06:00 +22°C° 2 mm 3 mps 738 mmHg 96%
    07:00 +23°C° 1.4 mm 2 mps 738 mmHg 97%
    08:00 +23°C° 1.4 mm 2 mps 738 mmHg 97%
    09:00 +23°C° 1.4 mm 1 mps 738 mmHg 98%
    10:00 +23°C° 1.4 mm 1 mps 738 mmHg 98%
    11:00 +23°C° 1.4 mm 2 mps 738 mmHg 98%
    12:00 +21°C° 1.4 mm 2 mps 738 mmHg 98%
    13:00 +23°C° 0.6 mm 2 mps 738 mmHg 98%
    14:00 +23°C° 0.6 mm 2 mps 739 mmHg 97%
    15:00 +22°C° 0.6 mm 3 mps 739 mmHg 97%
    16:00 +24°C° 0.1 mm 2 mps 739 mmHg 95%
    17:00 +25°C° 0.1 mm 2 mps 739 mmHg 93%
    18:00 +26°C° 0.1 mm 1 mps 740 mmHg 91%
    19:00 +25°C° 0 mm 2 mps 740 mmHg 93%
    20:00 +24°C° 0 mm 2 mps 741 mmHg 94%
    21:00 +23°C° 0 mm 2 mps 741 mmHg 96%
    22:00 +23°C° 0 mm 2 mps 741 mmHg 95%
    23:00 +21°C° 0 mm 2 mps 741 mmHg 95%

    23 July, Tuesday

    Time Temperature Precipitation Wind Pressure Humidity
    00:00 +21°C° 0 mm 2 mps 741 mmHg 95%
    01:00 +21°C° 0 mm 2 mps 741 mmHg 95%
    02:00 +21°C° 0 mm 2 mps 741 mmHg 94%
    03:00 +20°C° 0 mm 2 mps 741 mmHg 94%
    04:00 +21°C° 0 mm 2 mps 740 mmHg 94%
    05:00 +21°C° 0 mm 2 mps 740 mmHg 93%
    06:00 +21°C° 0 mm 2 mps 740 mmHg 92%
    07:00 +24°C° 0.2 mm 3 mps 740 mmHg 89%
    08:00 +26°C° 0.2 mm 3 mps 740 mmHg 85%
    09:00 +28°C° 0.2 mm 4 mps 740 mmHg 81%
    10:00 +29°C° 0 mm 4 mps 740 mmHg 77%
    11:00 +32°C° 0 mm 4 mps 740 mmHg 72%
    12:00 +33°C° 0 mm 4 mps 739 mmHg 68%
    13:00 +33°C° 0 mm 4 mps 739 mmHg 67%
    14:00 +34°C° 0 mm 4 mps 739 mmHg 65%
    15:00 +35°C° 0 mm 3 mps 739 mmHg 64%
    16:00 +34°C° 0.1 mm 3 mps 739 mmHg 68%
    17:00 +33°C° 0.1 mm 3 mps 739 mmHg 71%
    18:00 +31°C° 0.1 mm 3 mps 739 mmHg 75%
    19:00 +29°C° 2.6 mm 4 mps 740 mmHg 82%
    20:00 +27°C° 2.6 mm 5 mps 740 mmHg 89%
    21:00 +23°C° 2.6 mm 6 mps 741 mmHg 96%
    22:00 +23°C° 1.4 mm 4 mps 741 mmHg 96%
    23:00 +24°C° 1.4 mm 3 mps 741 mmHg 95%

    24 July, Wednesday

    Time Temperature Precipitation Wind Pressure Humidity
    00:00 +23°C° 1.4 mm 1 mps 740 mmHg 95%
    01:00 +23°C° 0 mm 1 mps 740 mmHg 95%
    02:00 +23°C° 0 mm 1 mps 740 mmHg 96%
    03:00 +23°C° 0 mm 1 mps 740 mmHg 96%
    04:00 +23°C° 0.1 mm 1 mps 739 mmHg 96%
    05:00 +21°C° 0.1 mm 0 mps 739 mmHg 96%
    06:00 +21°C° 0.1 mm 0 mps 739 mmHg 96%
    07:00 +21°C° 0.1 mm 0 mps 739 mmHg 95%
    08:00 +24°C° 0.1 mm 1 mps 739 mmHg 94%
    09:00 +24°C° 0.1 mm 1 mps 739 mmHg 93%
    10:00 +25°C° 0.6 mm 1 mps 739 mmHg 91%
    11:00 +26°C° 0.6 mm 2 mps 738 mmHg 88%
    12:00 +27°C° 0.6 mm 2 mps 738 mmHg 86%
    13:00 +28°C° 0.4 mm 2 mps 738 mmHg 82%
    14:00 +28°C° 0.4 mm 2 mps 738 mmHg 79%
    15:00 +29°C° 0.4 mm 2 mps 737 mmHg 75%
    16:00 +28°C° 1.5 mm 2 mps 737 mmHg 81%
    17:00 +27°C° 1.5 mm 2 mps 737 mmHg 86%
    18:00 +27°C° 1.5 mm 2 mps 737 mmHg 91%
    19:00 +25°C° 1.6 mm 3 mps 738 mmHg 93%
    20:00 +24°C° 1.6 mm 3 mps 738 mmHg 95%
    21:00 +22°C° 1.6 mm 3 mps 738 mmHg 96%
    22:00 +22°C° 1.5 mm 4 mps 738 mmHg 96%
    23:00 +22°C° 1.5 mm 4 mps 738 mmHg 96%

    25 July, Thursday

    Time Temperature Precipitation Wind Pressure Humidity
    00:00 +22°C° 1.5 mm 4 mps 738 mmHg 96%
    01:00 +22°C° 0 mm 4 mps 738 mmHg 96%
    02:00 +22°C° 0 mm 4 mps 738 mmHg 96%
    03:00 +22°C° 0 mm 4 mps 739 mmHg 97%
    04:00 +22°C° 0 mm 4 mps 739 mmHg 97%
    05:00 +22°C° 0 mm 4 mps 739 mmHg 97%
    06:00 +22°C° 0 mm 4 mps 739 mmHg 98%
    07:00 +22°C° 0.1 mm 4 mps 740 mmHg 95%
    08:00 +23°C° 0.1 mm 5 mps 740 mmHg 93%
    09:00 +23°C° 0.1 mm 5 mps 741 mmHg 91%
    10:00 +25°C° 0.2 mm 5 mps 741 mmHg 87%
    11:00 +26°C° 0.2 mm 5 mps 741 mmHg 84%
    12:00 +26°C° 0.2 mm 5 mps 741 mmHg 80%
    13:00 +25°C° 0.4 mm 5 mps 742 mmHg 83%
    14:00 +23°C° 0.4 mm 4 mps 742 mmHg 85%
    15:00 +22°C° 0.4 mm 4 mps 742 mmHg 88%
    16:00 +22°C° 0.2 mm 3 mps 742 mmHg 90%
    17:00 +21°C° 0.2 mm 2 mps 742 mmHg 93%
    18:00 +21°C° 0.2 mm 1 mps 743 mmHg 95%
    19:00 +20°C° 0 mm 1 mps 743 mmHg 95%
    20:00 +20°C° 0 mm 1 mps 744 mmHg 94%
    21:00 +20°C° 0 mm 1 mps 744 mmHg 94%
    22:00 +20°C° 0 mm 1 mps 744 mmHg 94%
    23:00 +19°C° 0 mm 1 mps 744 mmHg 93%
    Show more